IGO187I VOMM-FMEE

Flight info

Callsign IGO187I
Flight time N/A
Altitude 34000
Route AKMIL V5 TTR R457 MLE R329 VRMG G454 BOBOD UT454 OKBOG DCT OKMIN Q200 MP211 Q202 SOBAT SOBAT2R
Aircraft A320/M-SDE3FGHIRWY/LB1

Departure

Time 2026-05-04 07:03
Airport Chennai International Airport (VOMM)

Arrival

Time N/A
Airport Roland Garros Airport (FMEE)
Time Latitude Longitude Altitude Speed Heading
2026-05-04 06:50 12.98437 80.16530 49 ft 0 kts 159°
2026-05-04 06:55 12.98454 80.16523 47 ft 3 kts 159°
2026-05-04 06:55 12.98473 80.16514 52 ft 4 kts 141°
2026-05-04 06:56 12.98487 80.16494 49 ft 4 kts 92°
2026-05-04 06:57 12.98485 80.16480 52 ft 0 kts 69°
2026-05-04 06:58 12.98493 80.16500 53 ft 8 kts 69°
2026-05-04 06:58 12.98525 80.16586 53 ft 16 kts 69°
2026-05-04 06:59 12.98568 80.16702 52 ft 19 kts 68°
2026-05-04 06:59 12.98654 80.16756 52 ft 16 kts 341°
2026-05-04 06:59 12.98755 80.16751 49 ft 15 kts 43°
2026-05-04 06:59 12.98812 80.16882 51 ft 24 kts 69°
2026-05-04 07:01 12.99264 80.17663 58 ft 6 kts 336°
2026-05-04 07:01 12.99290 80.17620 53 ft 10 kts 254°
2026-05-04 07:02 12.99268 80.17569 52 ft 0 kts 250°
2026-05-04 07:02 12.99265 80.17559 55 ft 10 kts 249°
2026-05-04 07:03 12.99141 80.17231 52 ft 88 kts 249°
2026-05-04 07:03 12.98845 80.16437 52 ft 147 kts 249°
2026-05-04 07:03 12.98434 80.15351 338 ft 174 kts 246°
2026-05-04 07:03 12.98034 80.14162 928 ft 175 kts 250°
2026-05-04 07:04 12.97623 80.12956 1176 ft 182 kts 248°
2026-05-04 07:04 12.97143 80.11693 1357 ft 200 kts 248°
2026-05-04 07:04 12.96601 80.10298 1473 ft 223 kts 246°
2026-05-04 07:04 12.95934 80.08776 1640 ft 246 kts 245°
2026-05-04 07:05 12.95174 80.07143 2026 ft 259 kts 245°
2026-05-04 07:05 12.94382 80.05477 2736 ft 261 kts 244°
2026-05-04 07:05 12.93590 80.03812 3410 ft 265 kts 244°
2026-05-04 07:05 12.92771 80.02085 4132 ft 267 kts 244°
2026-05-04 07:06 12.91153 79.98651 5522 ft 272 kts 245°
2026-05-04 07:06 12.90327 79.96891 6216 ft 275 kts 245°
2026-05-04 07:06 12.89494 79.95108 6787 ft 280 kts 246°
2026-05-04 07:07 12.88650 79.93295 7389 ft 284 kts 245°
2026-05-04 07:08 12.82212 79.79431 10361 ft 353 kts 245°
2026-05-04 07:09 12.81144 79.77138 10761 ft 360 kts 245°
2026-05-04 07:09 12.80025 79.74821 11221 ft 365 kts 240°
2026-05-04 07:09 12.78523 79.72719 11748 ft 368 kts 227°
2026-05-04 07:09 12.76591 79.70997 12287 ft 370 kts 214°
2026-05-04 07:10 12.74319 79.69743 12772 ft 373 kts 201°
2026-05-04 07:10 12.71881 79.68807 13281 ft 376 kts 200°
2026-05-04 07:12 12.54606 79.62071 16846 ft 381 kts 200°
2026-05-04 07:12 12.52127 79.61105 17326 ft 382 kts 200°
2026-05-04 07:12 12.49634 79.60134 17769 ft 384 kts 200°
2026-05-04 07:12 12.47131 79.59158 18218 ft 386 kts 200°
2026-05-04 07:13 12.44621 79.58178 18603 ft 387 kts 201°
2026-05-04 07:13 12.42094 79.57193 18988 ft 389 kts 201°
2026-05-04 07:13 12.39554 79.56206 19331 ft 392 kts 201°
2026-05-04 07:14 12.29274 79.52214 20752 ft 400 kts 201°
2026-05-04 07:14 12.26667 79.51199 21106 ft 402 kts 201°
2026-05-04 07:15 12.24063 79.50189 21446 ft 404 kts 201°
2026-05-04 07:15 12.21430 79.49169 21777 ft 406 kts 202°
2026-05-04 07:15 12.18781 79.48142 22078 ft 408 kts 201°
2026-05-04 07:15 12.16121 79.47107 22373 ft 410 kts 202°
2026-05-04 07:16 12.13482 79.46080 22675 ft 412 kts 202°
2026-05-04 07:16 12.10796 79.45036 23010 ft 414 kts 202°
2026-05-04 07:16 12.08096 79.43987 23315 ft 416 kts 202°
2026-05-04 07:16 12.05382 79.42933 23580 ft 418 kts 202°
2026-05-04 07:17 12.02655 79.41876 23811 ft 420 kts 202°
2026-05-04 07:17 11.99917 79.40816 24047 ft 422 kts 202°
2026-05-04 07:17 11.97169 79.39754 24297 ft 423 kts 202°
2026-05-04 07:17 11.94409 79.38686 24538 ft 425 kts 202°
2026-05-04 07:18 11.91640 79.37615 24773 ft 426 kts 202°
2026-05-04 07:18 11.88861 79.36536 25014 ft 428 kts 202°
2026-05-04 07:18 11.86078 79.35456 25262 ft 429 kts 202°
2026-05-04 07:18 11.83278 79.34371 25497 ft 431 kts 201°
2026-05-04 07:19 11.80471 79.33283 25712 ft 432 kts 201°
2026-05-04 07:19 11.77652 79.32192 25951 ft 434 kts 201°
2026-05-04 07:19 11.74824 79.31096 26181 ft 435 kts 201°
2026-05-04 07:19 11.71991 79.29997 26406 ft 437 kts 201°
2026-05-04 07:20 11.69142 79.28894 26637 ft 438 kts 201°
2026-05-04 07:20 11.66283 79.27790 26860 ft 440 kts 201°
2026-05-04 07:20 11.63417 79.26685 27077 ft 441 kts 201°
2026-05-04 07:20 11.60537 79.25572 27293 ft 443 kts 202°
2026-05-04 07:22 11.42078 79.14225 29253 ft 442 kts 213°
2026-05-04 07:22 11.40317 79.13099 29478 ft 442 kts 213°
2026-05-04 07:23 11.36870 79.10889 29916 ft 441 kts 213°
2026-05-04 07:23 11.35150 79.09786 30105 ft 441 kts 213°
2026-05-04 07:23 11.32562 79.08126 30404 ft 440 kts 213°
2026-05-04 07:23 11.29975 79.06468 30704 ft 439 kts 213°
2026-05-04 07:24 11.27395 79.04817 31001 ft 438 kts 212°
2026-05-04 07:24 11.24813 79.03169 31294 ft 437 kts 212°
2026-05-04 07:24 11.22240 79.01525 31607 ft 436 kts 212°
2026-05-04 07:24 11.19670 78.99883 31912 ft 435 kts 212°
2026-05-04 07:25 11.17111 78.98244 32239 ft 434 kts 212°
2026-05-04 07:26 10.99321 78.86871 33837 ft 438 kts 212°
2026-05-04 07:27 10.94135 78.83557 33833 ft 441 kts 212°
2026-05-04 07:27 10.88925 78.80231 33833 ft 442 kts 212°
2026-05-04 07:28 10.83749 78.76927 33832 ft 442 kts 212°
2026-05-04 07:28 10.78533 78.73601 33866 ft 442 kts 212°
2026-05-04 07:29 10.73349 78.70229 33870 ft 443 kts 213°
2026-05-04 07:29 10.68242 78.66727 33873 ft 443 kts 214°
2026-05-04 07:30 10.63146 78.63208 33867 ft 443 kts 214°
2026-05-04 07:30 10.58023 78.59718 33863 ft 443 kts 213°
2026-05-04 07:31 10.52889 78.56244 33851 ft 443 kts 213°
2026-05-04 07:33 10.32367 78.42337 33848 ft 443 kts 213°
2026-05-04 07:33 10.27271 78.38888 33861 ft 443 kts 213°
2026-05-04 07:34 10.22147 78.35414 33860 ft 443 kts 213°
2026-05-04 07:34 10.17023 78.31945 33853 ft 443 kts 213°
2026-05-04 07:35 10.11898 78.28478 33851 ft 443 kts 213°
2026-05-04 07:35 10.06774 78.25011 33850 ft 443 kts 213°
2026-05-04 07:36 10.01648 78.21553 33852 ft 443 kts 213°
2026-05-04 07:38 9.81211 78.07392 33856 ft 448 kts 220°
2026-05-04 07:38 9.76470 78.03293 33861 ft 448 kts 219°
2026-05-04 07:39 9.71722 77.99194 33856 ft 448 kts 219°
2026-05-04 07:39 9.67006 77.95116 33857 ft 449 kts 220°
2026-05-04 07:40 9.62254 77.91010 33846 ft 449 kts 220°
2026-05-04 07:40 9.57491 77.86903 33829 ft 450 kts 219°
2026-05-04 07:41 9.52721 77.82786 33822 ft 451 kts 219°
2026-05-04 07:41 9.47939 77.78661 33833 ft 451 kts 219°
2026-05-04 07:42 9.43155 77.74537 33828 ft 452 kts 219°
2026-05-04 07:42 9.38367 77.70418 33831 ft 452 kts 219°
2026-05-04 07:43 9.33581 77.66294 33847 ft 452 kts 219°
2026-05-04 07:43 9.28792 77.62173 33842 ft 452 kts 219°
2026-05-04 07:44 9.23999 77.58049 33849 ft 452 kts 219°
2026-05-04 07:44 9.19215 77.53921 33847 ft 452 kts 219°
2026-05-04 07:45 9.14421 77.49799 33853 ft 452 kts 219°
2026-05-04 07:45 9.09624 77.45688 33852 ft 452 kts 219°
2026-05-04 07:46 9.04822 77.41576 33852 ft 452 kts 219°
2026-05-04 07:46 9.00028 77.37462 33848 ft 452 kts 220°
2026-05-04 07:47 8.95233 77.33343 33862 ft 452 kts 220°
2026-05-04 07:49 8.76087 77.16936 33886 ft 449 kts 219°
2026-05-04 07:49 8.71330 77.12861 33889 ft 447 kts 220°
2026-05-04 07:50 8.66595 77.08801 33887 ft 446 kts 220°
2026-05-04 07:50 8.61863 77.04747 33882 ft 446 kts 219°
2026-05-04 07:51 8.57130 77.00701 33881 ft 445 kts 219°
2026-05-04 07:51 8.52406 76.96656 33880 ft 445 kts 219°
2026-05-04 07:52 8.47710 76.92645 33879 ft 445 kts 219°
2026-05-04 07:52 8.42909 76.88694 33872 ft 445 kts 217°
2026-05-04 07:54 8.23308 76.73121 33859 ft 451 kts 217°
2026-05-04 07:55 8.18384 76.69181 33863 ft 452 kts 217°
2026-05-04 07:55 8.13461 76.65244 33867 ft 452 kts 217°
2026-05-04 07:56 8.08524 76.61301 33883 ft 452 kts 217°
2026-05-04 07:56 8.03587 76.57354 33883 ft 453 kts 217°
2026-05-04 07:57 7.98644 76.53404 33882 ft 453 kts 217°
2026-05-04 07:57 7.93696 76.49457 33893 ft 454 kts 217°
2026-05-04 07:58 7.88744 76.45506 33892 ft 454 kts 217°
2026-05-04 07:58 7.83792 76.41554 33892 ft 454 kts 217°
2026-05-04 07:59 7.78864 76.37622 33896 ft 454 kts 217°
2026-05-04 07:59 7.73905 76.33673 33897 ft 454 kts 217°
2026-05-04 08:00 7.68944 76.29728 33896 ft 454 kts 217°
2026-05-04 08:02 7.49114 76.13931 33904 ft 454 kts 217°
2026-05-04 08:02 7.44151 76.09985 33901 ft 455 kts 217°
2026-05-04 08:03 7.39184 76.06041 33903 ft 455 kts 217°
2026-05-04 08:03 7.34218 76.02087 33911 ft 455 kts 217°
2026-05-04 08:04 7.29251 75.98133 33912 ft 455 kts 217°
2026-05-04 08:04 7.24277 75.94184 33911 ft 455 kts 217°
2026-05-04 08:05 7.19299 75.90233 33910 ft 455 kts 217°
2026-05-04 08:05 7.14324 75.86281 33910 ft 455 kts 217°
2026-05-04 08:06 7.09352 75.82330 33907 ft 455 kts 217°
2026-05-04 08:06 7.04380 75.78389 33907 ft 455 kts 217°
2026-05-04 08:08 6.84483 75.62605 33898 ft 457 kts 217°
2026-05-04 08:11 6.61999 75.44799 33901 ft 457 kts 217°
2026-05-04 08:11 6.54508 75.38860 33900 ft 457 kts 217°
2026-05-04 08:12 6.50358 75.35575 33895 ft 457 kts 217°
2026-05-04 08:12 6.45357 75.31623 33894 ft 457 kts 217°
2026-05-04 08:13 6.40352 75.27670 33893 ft 457 kts 217°
2026-05-04 08:13 6.35346 75.23719 33894 ft 457 kts 217°
2026-05-04 08:14 6.30348 75.19761 33896 ft 458 kts 217°
2026-05-04 08:16 6.10305 75.03926 33890 ft 459 kts 217°
2026-05-04 08:16 6.05281 74.99946 33885 ft 461 kts 217°
2026-05-04 08:17 6.00240 74.95965 33883 ft 461 kts 217°
2026-05-04 08:17 5.95194 74.91980 33888 ft 462 kts 217°
2026-05-04 08:19 5.75083 74.75962 33910 ft 462 kts 218°
2026-05-04 08:20 5.70047 74.71966 33910 ft 461 kts 218°
2026-05-04 08:20 5.65009 74.67971 33910 ft 461 kts 218°
2026-05-04 08:21 5.59982 74.63967 33913 ft 461 kts 218°
2026-05-04 08:21 5.54951 74.59965 33913 ft 461 kts 218°
2026-05-04 08:22 5.49914 74.55972 33915 ft 461 kts 217°
2026-05-04 08:24 5.29861 74.40064 33921 ft 459 kts 218°
2026-05-04 08:24 5.24844 74.36095 33921 ft 459 kts 218°
2026-05-04 08:25 5.19828 74.32121 33917 ft 460 kts 217°
2026-05-04 08:25 5.14808 74.28136 33916 ft 460 kts 217°
2026-05-04 08:27 4.94741 74.12245 33917 ft 459 kts 217°
2026-05-04 08:28 4.89733 74.08272 33916 ft 459 kts 217°
2026-05-04 08:28 4.84720 74.04300 33920 ft 459 kts 217°
2026-05-04 08:29 4.79729 74.00306 33922 ft 459 kts 217°
2026-05-04 08:31 4.59745 73.84192 33891 ft 464 kts 218°
2026-05-04 08:33 4.39579 73.67982 33909 ft 465 kts 218°
2026-05-04 08:35 4.21496 73.54309 33901 ft 465 kts 201°
2026-05-04 08:35 4.18437 73.53294 33901 ft 463 kts 192°
2026-05-04 08:35 4.15260 73.52806 33898 ft 461 kts 181°
2026-05-04 08:35 4.12057 73.52754 33895 ft 461 kts 179°
2026-05-04 08:37 3.89591 73.52743 33903 ft 462 kts 179°
2026-05-04 08:38 3.83157 73.52739 33905 ft 462 kts 178°
2026-05-04 08:38 3.76726 73.52741 33907 ft 462 kts 179°
2026-05-04 08:40 3.51038 73.52725 33897 ft 463 kts 179°
2026-05-04 08:41 3.44597 73.52723 33900 ft 463 kts 179°
2026-05-04 08:41 3.38151 73.52718 33896 ft 463 kts 179°
2026-05-04 08:42 3.31710 73.52369 33898 ft 464 kts 184°
2026-05-04 08:42 3.25282 73.51779 33904 ft 464 kts 184°
2026-05-04 08:43 3.18855 73.51175 33911 ft 463 kts 185°
2026-05-04 08:43 3.12438 73.50582 33908 ft 463 kts 184°
2026-05-04 08:44 3.06021 73.49998 33906 ft 463 kts 184°
2026-05-04 08:46 2.80394 73.47655 33893 ft 464 kts 184°
2026-05-04 08:46 2.73970 73.47062 33897 ft 464 kts 184°
2026-05-04 08:47 2.67546 73.46467 33900 ft 464 kts 184°
2026-05-04 08:47 2.61116 73.45875 33902 ft 464 kts 184°
2026-05-04 08:48 2.54677 73.45277 33908 ft 464 kts 185°
2026-05-04 08:48 2.48247 73.44689 33907 ft 464 kts 184°
2026-05-04 08:49 2.41818 73.44105 33907 ft 464 kts 185°
2026-05-04 08:50 2.19318 73.42039 33898 ft 464 kts 185°
2026-05-04 08:51 2.12900 73.41447 33918 ft 462 kts 185°
2026-05-04 08:51 2.06505 73.40862 33919 ft 461 kts 185°
2026-05-04 08:52 2.00126 73.40280 33916 ft 459 kts 185°
2026-05-04 08:52 1.93764 73.39694 33955 ft 461 kts 185°
2026-05-04 08:53 1.90566 73.39399 34166 ft 462 kts 185°
2026-05-04 08:54 1.68133 73.37332 35832 ft 463 kts 185°
2026-05-04 08:55 1.61787 73.36751 35892 ft 462 kts 185°
2026-05-04 08:55 1.55384 73.36163 35892 ft 461 kts 185°
2026-05-04 09:01 0.87532 73.29953 35895 ft 469 kts 185°
2026-05-04 09:01 0.82130 73.29454 35895 ft 469 kts 185°
2026-05-04 09:02 0.74526 73.28758 35894 ft 470 kts 185°
2026-05-04 09:02 0.69107 73.28263 35901 ft 470 kts 186°
2026-05-04 09:03 0.62590 73.27659 35902 ft 470 kts 186°
2026-05-04 09:03 0.56071 73.27055 35908 ft 470 kts 186°
2026-05-04 09:04 0.49556 73.26458 35906 ft 470 kts 186°
2026-05-04 09:04 0.43044 73.25864 35908 ft 470 kts 186°
2026-05-04 09:05 0.36527 73.25268 35905 ft 470 kts 186°
2026-05-04 09:05 0.30013 73.24668 35908 ft 470 kts 186°
2026-05-04 09:06 0.23498 73.24058 35904 ft 470 kts 185°
2026-05-04 09:08 -0.02480 73.21696 35909 ft 468 kts 185°
2026-05-04 09:08 -0.08958 73.21104 35914 ft 467 kts 185°
2026-05-04 09:09 -0.15424 73.20510 35914 ft 466 kts 186°
2026-05-04 09:09 -0.21870 73.19906 35912 ft 465 kts 186°
2026-05-04 09:10 -0.28315 73.19313 35912 ft 465 kts 185°
2026-05-04 09:10 -0.34753 73.18722 35911 ft 465 kts 186°
2026-05-04 09:11 -0.41182 73.18130 35896 ft 465 kts 185°
2026-05-04 09:11 -0.47647 73.17544 35883 ft 467 kts 185°
2026-05-04 09:12 -0.54122 73.16951 35885 ft 468 kts 185°
2026-05-04 09:14 -0.78527 73.09580 35889 ft 469 kts 213°
2026-05-04 09:14 -0.84001 73.06015 35891 ft 470 kts 213°
2026-05-04 09:15 -0.89484 73.02449 35894 ft 470 kts 213°
2026-05-04 09:15 -0.94967 72.98883 35896 ft 470 kts 213°
2026-05-04 09:17 -1.18688 72.81417 35897 ft 471 kts 217°
2026-05-04 09:18 -1.23902 72.77448 35898 ft 472 kts 217°
2026-05-04 09:18 -1.29139 72.73476 35901 ft 472 kts 217°
2026-05-04 09:19 -1.34364 72.69503 35901 ft 472 kts 217°
2026-05-04 09:19 -1.39587 72.65510 35901 ft 472 kts 217°
2026-05-04 09:20 -1.44802 72.61527 35901 ft 472 kts 217°
2026-05-04 09:20 -1.50027 72.57543 35897 ft 472 kts 217°
2026-05-04 09:21 -1.55235 72.53570 35901 ft 473 kts 217°
2026-05-04 09:21 -1.60462 72.49577 35900 ft 473 kts 217°
2026-05-04 09:22 -1.65686 72.45584 35900 ft 473 kts 217°
2026-05-04 09:22 -1.70913 72.41595 35901 ft 473 kts 217°
2026-05-04 09:23 -1.76140 72.37609 35902 ft 473 kts 217°
2026-05-04 09:23 -1.81368 72.33617 35902 ft 473 kts 217°
2026-05-04 09:25 -2.02269 72.17659 35896 ft 474 kts 217°
2026-05-04 09:26 -2.07509 72.13662 35900 ft 474 kts 217°
2026-05-04 09:26 -2.12750 72.09663 35899 ft 474 kts 217°
2026-05-04 09:27 -2.17988 72.05652 35901 ft 474 kts 217°
2026-05-04 09:27 -2.23225 72.01649 35899 ft 474 kts 217°
2026-05-04 09:28 -2.28469 71.97652 35898 ft 474 kts 217°
2026-05-04 09:28 -2.33709 71.93641 35899 ft 474 kts 218°
2026-05-04 09:29 -2.38945 71.89636 35894 ft 474 kts 217°
2026-05-04 09:29 -2.44199 71.85639 35891 ft 475 kts 217°
2026-05-04 09:30 -2.49446 71.81626 35894 ft 475 kts 218°
2026-05-04 09:30 -2.54694 71.77599 35898 ft 475 kts 218°
2026-05-04 09:31 -2.59952 71.73581 35898 ft 475 kts 218°
2026-05-04 09:31 -2.65209 71.69569 35900 ft 475 kts 218°
2026-05-04 09:32 -2.70465 71.65561 35900 ft 475 kts 218°
2026-05-04 09:34 -2.91496 71.49517 35896 ft 475 kts 218°
2026-05-04 09:34 -2.96753 71.45502 35897 ft 475 kts 218°
2026-05-04 09:35 -3.02010 71.41486 35899 ft 475 kts 218°
2026-05-04 09:35 -3.07268 71.37476 35898 ft 475 kts 218°
2026-05-04 09:37 -3.28267 71.21435 35894 ft 475 kts 218°
2026-05-04 09:38 -3.33505 71.17437 35894 ft 475 kts 218°
2026-05-04 09:38 -3.38758 71.13422 35894 ft 475 kts 218°
2026-05-04 09:39 -3.43972 71.09438 35895 ft 475 kts 218°
2026-05-04 09:39 -3.49216 71.05424 35894 ft 475 kts 218°
2026-05-04 09:40 -3.54462 71.01405 35895 ft 475 kts 218°
2026-05-04 09:40 -3.59715 70.97391 35899 ft 475 kts 218°
2026-05-04 09:42 -3.80695 70.81356 35885 ft 474 kts 218°
2026-05-04 09:43 -3.85939 70.77343 35886 ft 474 kts 218°
2026-05-04 09:43 -3.91186 70.73328 35887 ft 475 kts 218°
2026-05-04 09:44 -3.96431 70.69312 35885 ft 475 kts 218°
2026-05-04 09:46 -4.17424 70.53239 35895 ft 474 kts 218°
2026-05-04 09:46 -4.22663 70.49216 35891 ft 474 kts 218°
2026-05-04 09:47 -4.27898 70.45199 35888 ft 475 kts 218°
2026-05-04 09:49 -4.48007 70.29794 35893 ft 474 kts 217°
2026-05-04 09:51 -4.66331 70.15734 35894 ft 474 kts 218°
2026-05-04 09:51 -4.71538 70.11750 35895 ft 474 kts 217°
2026-05-04 09:52 -4.76774 70.07734 35893 ft 474 kts 218°
2026-05-04 09:52 -4.81997 70.03709 35896 ft 474 kts 218°
2026-05-04 09:53 -4.87230 69.99693 35897 ft 474 kts 218°
2026-05-04 09:53 -4.92460 69.95678 35895 ft 474 kts 218°
2026-05-04 09:54 -4.97692 69.91657 35891 ft 474 kts 218°
2026-05-04 09:54 -5.02926 69.87642 35892 ft 473 kts 218°
2026-05-04 09:55 -5.08156 69.83624 35896 ft 473 kts 218°
2026-05-04 09:55 -5.13371 69.79619 35895 ft 472 kts 218°
2026-05-04 09:56 -5.18588 69.75612 35894 ft 472 kts 218°
2026-05-04 09:56 -5.23793 69.71599 35893 ft 472 kts 218°
2026-05-04 09:57 -5.28994 69.67587 35891 ft 472 kts 218°
2026-05-04 09:57 -5.34204 69.63581 35891 ft 471 kts 218°
2026-05-04 09:58 -5.39408 69.59583 35890 ft 471 kts 218°
2026-05-04 09:58 -5.44615 69.55582 35893 ft 471 kts 218°
2026-05-04 10:00 -5.65416 69.39570 35890 ft 471 kts 217°
2026-05-04 10:04 -6.01736 69.11564 35894 ft 471 kts 217°
2026-05-04 10:04 -6.06926 69.07558 35892 ft 471 kts 217°
2026-05-04 10:05 -6.12114 69.03549 35892 ft 470 kts 217°
2026-05-04 10:05 -6.17303 68.99541 35893 ft 470 kts 217°
2026-05-04 10:06 -6.22485 68.95532 35893 ft 470 kts 217°
2026-05-04 10:06 -6.27661 68.91536 35893 ft 469 kts 217°
2026-05-04 10:08 -6.45785 68.77528 35895 ft 469 kts 217°
2026-05-04 10:08 -6.50952 68.73523 35893 ft 469 kts 217°
2026-05-04 10:09 -6.56122 68.69533 35894 ft 469 kts 217°
2026-05-04 10:09 -6.61266 68.65563 35895 ft 469 kts 217°
2026-05-04 10:10 -6.66435 68.61556 35900 ft 469 kts 217°
2026-05-04 10:10 -6.71604 68.57547 35900 ft 469 kts 217°
2026-05-04 10:11 -6.76776 68.53545 35897 ft 469 kts 217°
2026-05-04 10:11 -6.81939 68.49544 35899 ft 468 kts 217°
2026-05-04 10:12 -6.87096 68.45543 35900 ft 468 kts 217°
2026-05-04 10:12 -6.92256 68.41541 35898 ft 468 kts 217°
2026-05-04 10:13 -6.97411 68.37544 35899 ft 468 kts 217°
2026-05-04 10:13 -7.02574 68.33541 35900 ft 468 kts 217°
2026-05-04 10:14 -7.07728 68.29537 35899 ft 468 kts 218°
2026-05-04 10:16 -7.28332 68.13551 35896 ft 467 kts 218°
2026-05-04 10:16 -7.33483 68.09547 35896 ft 467 kts 218°
2026-05-04 10:17 -7.38630 68.05546 35896 ft 467 kts 218°
2026-05-04 10:19 -7.59201 67.89548 35896 ft 467 kts 218°
2026-05-04 10:19 -7.64334 67.85551 35896 ft 467 kts 218°
2026-05-04 10:20 -7.69468 67.81546 35895 ft 466 kts 218°
2026-05-04 10:20 -7.74605 67.77547 35901 ft 466 kts 218°
2026-05-04 10:21 -7.79697 67.73582 35905 ft 465 kts 218°
2026-05-04 10:21 -7.84813 67.69595 35904 ft 464 kts 218°
2026-05-04 10:22 -7.92477 67.63620 35901 ft 464 kts 218°
2026-05-04 10:23 -7.97579 67.59650 35900 ft 463 kts 218°
2026-05-04 10:25 -8.17950 67.43734 35900 ft 462 kts 219°
2026-05-04 10:25 -8.23036 67.39763 35899 ft 461 kts 219°
2026-05-04 10:26 -8.28109 67.35801 35898 ft 461 kts 219°
2026-05-04 10:26 -8.33184 67.31831 35895 ft 461 kts 219°
2026-05-04 10:27 -8.38216 67.27890 35891 ft 461 kts 219°
2026-05-04 10:27 -8.43286 67.23937 35906 ft 459 kts 219°
2026-05-04 10:28 -8.48331 67.19991 35913 ft 457 kts 219°
2026-05-04 10:28 -8.53347 67.16051 35911 ft 456 kts 219°
2026-05-04 10:29 -8.58354 67.12132 35907 ft 455 kts 219°
2026-05-04 10:29 -8.63348 67.08227 35903 ft 454 kts 219°
2026-05-04 10:30 -8.68336 67.04324 35902 ft 453 kts 219°
2026-05-04 10:30 -8.73322 67.00414 35897 ft 453 kts 219°
2026-05-04 10:31 -8.78292 66.96503 35898 ft 453 kts 219°
2026-05-04 10:32 -8.95701 66.82839 35891 ft 452 kts 218°
2026-05-04 10:33 -9.00670 66.78929 35889 ft 452 kts 219°
2026-05-04 10:33 -9.05642 66.75030 35891 ft 452 kts 219°
2026-05-04 10:34 -9.10618 66.71125 35893 ft 452 kts 219°
2026-05-04 10:34 -9.14744 66.67883 35893 ft 452 kts 219°
2026-05-04 10:35 -9.19705 66.63978 35894 ft 452 kts 219°
2026-05-04 10:35 -9.24669 66.60072 35892 ft 452 kts 219°
2026-05-04 10:36 -9.29628 66.56163 35883 ft 452 kts 219°
2026-05-04 10:36 -9.34599 66.52252 35875 ft 453 kts 219°
2026-05-04 10:37 -9.39578 66.48341 35870 ft 454 kts 219°
2026-05-04 10:37 -9.44562 66.44406 35871 ft 455 kts 219°
2026-05-04 10:39 -9.62035 66.30623 35882 ft 456 kts 219°
2026-05-04 10:40 -9.67044 66.26672 35885 ft 456 kts 219°
2026-05-04 10:40 -9.72056 66.22715 35890 ft 457 kts 219°
2026-05-04 10:41 -9.77067 66.18755 35890 ft 457 kts 219°
2026-05-04 10:41 -9.82083 66.14797 35892 ft 457 kts 219°
2026-05-04 10:42 -9.87101 66.10834 35890 ft 457 kts 219°
2026-05-04 10:42 -9.92120 66.06864 35892 ft 457 kts 219°
2026-05-04 10:43 -9.97132 66.02894 35898 ft 457 kts 219°
2026-05-04 10:45 -10.17186 65.87004 35908 ft 457 kts 219°
2026-05-04 10:45 -10.22190 65.83042 35907 ft 456 kts 219°
2026-05-04 10:46 -10.27193 65.79073 35906 ft 456 kts 219°
2026-05-04 10:46 -10.32190 65.75104 35907 ft 456 kts 219°
2026-05-04 10:47 -10.37187 65.71134 35898 ft 456 kts 220°
2026-05-04 10:47 -10.42189 65.67159 35896 ft 457 kts 220°
2026-05-04 10:49 -10.62217 65.51229 35904 ft 457 kts 219°
2026-05-04 10:50 -10.67223 65.47256 35909 ft 456 kts 220°
2026-05-04 10:52 -10.87154 65.31372 35912 ft 456 kts 220°
2026-05-04 10:52 -10.92140 65.27393 35906 ft 456 kts 220°
2026-05-04 10:54 -11.12144 65.11427 35910 ft 457 kts 220°
2026-05-04 10:56 -11.32161 64.95424 35925 ft 457 kts 220°
2026-05-04 10:57 -11.37157 64.91420 35923 ft 457 kts 220°
2026-05-04 10:57 -11.42159 64.87420 35919 ft 457 kts 220°
2026-05-04 10:58 -11.47151 64.83420 35923 ft 457 kts 220°
2026-05-04 10:58 -11.52141 64.79407 35924 ft 457 kts 220°
2026-05-04 10:59 -11.57134 64.75395 35923 ft 457 kts 220°
2026-05-04 10:59 -11.62098 64.71417 35931 ft 456 kts 220°
2026-05-04 11:00 -11.67086 64.67416 35930 ft 456 kts 221°
2026-05-04 11:02 -11.87003 64.51403 35932 ft 455 kts 221°
2026-05-04 11:05 -12.24187 64.21429 35942 ft 453 kts 221°
2026-05-04 11:06 -12.29082 64.17475 35939 ft 453 kts 221°
2026-05-04 11:06 -12.34016 64.13485 35937 ft 452 kts 221°
2026-05-04 11:10 -12.68513 63.85545 35942 ft 451 kts 222°
2026-05-04 11:12 -12.88119 63.69633 35943 ft 450 kts 221°
2026-05-04 11:12 -12.93019 63.65643 35942 ft 450 kts 221°
2026-05-04 11:13 -12.97911 63.61649 35943 ft 450 kts 221°
2026-05-04 11:13 -13.02810 63.57663 35942 ft 450 kts 221°
2026-05-04 11:14 -13.07714 63.53683 35943 ft 450 kts 221°
2026-05-04 11:16 -13.27297 63.37703 35947 ft 450 kts 221°
2026-05-04 11:16 -13.32195 63.33695 35949 ft 450 kts 221°
2026-05-04 11:17 -13.37102 63.29695 35949 ft 450 kts 221°
2026-05-04 11:19 -13.56689 63.13720 36010 ft 448 kts 220°
2026-05-04 11:19 -13.61585 63.09763 36167 ft 447 kts 219°
2026-05-04 11:20 -13.64032 63.07788 36284 ft 447 kts 219°
2026-05-04 11:20 -13.66446 63.05843 36412 ft 447 kts 219°
2026-05-04 11:20 -13.68096 63.04516 36514 ft 446 kts 219°
2026-05-04 11:20 -13.71332 63.01916 36756 ft 444 kts 219°
2026-05-04 11:22 -13.87198 62.88582 35945 ft 444 kts 222°
2026-05-04 11:22 -13.89616 62.86596 35945 ft 445 kts 221°
2026-05-04 11:23 -13.94475 62.82649 35942 ft 445 kts 221°
2026-05-04 11:25 -14.11330 62.68793 35955 ft 443 kts 222°
2026-05-04 11:25 -14.16146 62.64826 35957 ft 443 kts 222°
2026-05-04 11:27 -14.37787 62.46945 35968 ft 443 kts 223°
2026-05-04 11:28 -14.42591 62.42978 35966 ft 442 kts 223°
2026-05-04 11:28 -14.47398 62.39008 35967 ft 442 kts 223°
2026-05-04 11:29 -14.52164 62.35068 35966 ft 442 kts 223°
2026-05-04 11:29 -14.56964 62.31094 35978 ft 442 kts 223°